Tracking 27124 objects as of 31-Mar-2023
HD Live streaming from Space Station
objects crossing your sky now

STARLINK-3389

Track STARLINK-3389 now!
10-day predictions
STARLINK-3389 is classified as:


NORAD ID: 51124
Int'l Code: 2022-005W
Perigee: 545.9 km
Apogee: 547.8 km
Inclination: 53.2 °
Period: 95.4 minutes
Semi major axis: 6917 km
RCS: Unknown
Launch date: January 19, 2022
Source: United States (US)
Launch site: AIR FORCE EASTERN TEST RANGE (AFETR)
Your satellite tracking list
Your tracking list is empty




NASA's NSSDC Master Catalog

Two Line Element Set (TLE):
1 51124U 22005W   23090.28047993  .00000335  00000-0  39105-4 0  9991
2 51124  53.2164  82.3277 0001422  96.9998 263.1156 15.08850901 67659
Source of the keplerian elements: AFSPC